Hourly Weather Zmiev

Today, 15 July, Wednesday

Time Temperature Precipitation Wind Pressure Humidity
00:00 +14°C° 0.2 mm 7 mps 739 mmHg 93%
01:00 +14°C° 0.2 mm 7 mps 739 mmHg 93%
02:00 +14°C° 0 mm 7 mps 739 mmHg 93%
03:00 +14°C° 0 mm 7 mps 739 mmHg 91%
04:00 +14°C° 0 mm 7 mps 740 mmHg 90%
05:00 +14°C° 0 mm 7 mps 740 mmHg 89%
06:00 +15°C° 0 mm 6 mps 741 mmHg 84%
07:00 +16°C° 0 mm 6 mps 741 mmHg 80%
08:00 +17°C° 0 mm 6 mps 742 mmHg 76%
09:00 +19°C° 0.1 mm 6 mps 742 mmHg 70%
10:00 +20°C° 0.1 mm 7 mps 742 mmHg 64%
11:00 +21°C° 0.1 mm 7 mps 742 mmHg 58%
12:00 +22°C° 0.1 mm 7 mps 742 mmHg 56%
13:00 +22°C° 0.1 mm 7 mps 743 mmHg 54%
14:00 +23°C° 0.1 mm 7 mps 743 mmHg 52%
15:00 +22°C° 0 mm 6 mps 743 mmHg 56%
16:00 +22°C° 0 mm 5 mps 743 mmHg 59%
17:00 +22°C° 0 mm 4 mps 743 mmHg 62%
18:00 +20°C° 0 mm 3 mps 743 mmHg 66%
19:00 +18°C° 0 mm 3 mps 743 mmHg 71%
20:00 +17°C° 0 mm 2 mps 744 mmHg 76%
21:00 +16°C° 0 mm 2 mps 744 mmHg 78%
22:00 +16°C° 0 mm 2 mps 743 mmHg 80%
23:00 +15°C° 0 mm 2 mps 743 mmHg 82%

Tomorrow, 16 July, Thursday

Time Temperature Precipitation Wind Pressure Humidity
00:00 +15°C° 0 mm 1 mps 743 mmHg 83%
01:00 +14°C° 0 mm 1 mps 744 mmHg 85%
02:00 +14°C° 0 mm 1 mps 744 mmHg 86%
03:00 +14°C° 0 mm 1 mps 743 mmHg 86%
04:00 +15°C° 0 mm 1 mps 743 mmHg 85%
05:00 +15°C° 0 mm 1 mps 743 mmHg 85%
06:00 +17°C° 0 mm 2 mps 743 mmHg 79%
07:00 +19°C° 0 mm 2 mps 744 mmHg 73%
08:00 +21°C° 0 mm 2 mps 744 mmHg 67%
09:00 +21°C° 0.1 mm 3 mps 744 mmHg 63%
10:00 +22°C° 0.1 mm 3 mps 744 mmHg 60%
11:00 +24°C° 0.1 mm 3 mps 744 mmHg 56%
12:00 +25°C° 0.1 mm 3 mps 744 mmHg 55%
13:00 +25°C° 0.1 mm 3 mps 744 mmHg 54%
14:00 +25°C° 0.1 mm 3 mps 743 mmHg 53%
15:00 +25°C° 0 mm 2 mps 743 mmHg 55%
16:00 +25°C° 0 mm 2 mps 743 mmHg 56%
17:00 +25°C° 0 mm 2 mps 743 mmHg 58%
18:00 +23°C° 0 mm 1 mps 743 mmHg 62%
19:00 +21°C° 0 mm 1 mps 743 mmHg 66%
20:00 +20°C° 0 mm 1 mps 743 mmHg 70%
21:00 +19°C° 0 mm 1 mps 743 mmHg 73%
22:00 +18°C° 0 mm 1 mps 743 mmHg 77%
23:00 +17°C° 0 mm 2 mps 743 mmHg 80%

Day after tomorrow, 17 July, Friday

Time Temperature Precipitation Wind Pressure Humidity
00:00 +16°C° 0 mm 2 mps 743 mmHg 82%
01:00 +16°C° 0 mm 2 mps 743 mmHg 83%
02:00 +16°C° 0 mm 2 mps 743 mmHg 85%
03:00 +16°C° 0 mm 2 mps 743 mmHg 85%
04:00 +16°C° 0 mm 2 mps 743 mmHg 85%
05:00 +17°C° 0 mm 2 mps 743 mmHg 85%
06:00 +18°C° 0 mm 2 mps 743 mmHg 80%
07:00 +20°C° 0 mm 2 mps 744 mmHg 75%
08:00 +21°C° 0 mm 2 mps 744 mmHg 70%
09:00 +23°C° 0 mm 2 mps 744 mmHg 65%
10:00 +24°C° 0 mm 2 mps 744 mmHg 59%
11:00 +25°C° 0 mm 2 mps 744 mmHg 54%
12:00 +26°C° 0 mm 2 mps 744 mmHg 53%
13:00 +26°C° 0 mm 2 mps 744 mmHg 51%
14:00 +26°C° 0 mm 2 mps 743 mmHg 49%
15:00 +26°C° 0 mm 2 mps 743 mmHg 51%
16:00 +26°C° 0 mm 2 mps 743 mmHg 52%
17:00 +26°C° 0 mm 2 mps 743 mmHg 54%
18:00 +24°C° 0 mm 2 mps 744 mmHg 58%
19:00 +21°C° 0 mm 2 mps 744 mmHg 62%
20:00 +20°C° 0 mm 2 mps 744 mmHg 66%
21:00 +19°C° 0 mm 2 mps 744 mmHg 69%
22:00 +18°C° 0 mm 2 mps 744 mmHg 71%
23:00 +17°C° 0 mm 2 mps 744 mmHg 74%

18 July, Saturday

Time Temperature Precipitation Wind Pressure Humidity
00:00 +17°C° 0 mm 2 mps 744 mmHg 73%
01:00 +17°C° 0 mm 2 mps 744 mmHg 73%
02:00 +16°C° 0 mm 2 mps 745 mmHg 72%
03:00 +16°C° 0 mm 2 mps 745 mmHg 74%
04:00 +16°C° 0 mm 2 mps 745 mmHg 75%
05:00 +16°C° 0 mm 2 mps 745 mmHg 77%
06:00 +18°C° 0 mm 2 mps 745 mmHg 71%
07:00 +20°C° 0 mm 2 mps 746 mmHg 65%
08:00 +23°C° 0 mm 2 mps 746 mmHg 59%
09:00 +24°C° 0 mm 2 mps 746 mmHg 55%
10:00 +25°C° 0 mm 2 mps 746 mmHg 51%
11:00 +26°C° 0 mm 2 mps 746 mmHg 47%
12:00 +27°C° 0 mm 2 mps 746 mmHg 45%
13:00 +27°C° 0 mm 2 mps 746 mmHg 43%
14:00 +28°C° 0 mm 2 mps 746 mmHg 41%
15:00 +27°C° 0 mm 2 mps 745 mmHg 44%
16:00 +27°C° 0 mm 2 mps 745 mmHg 46%
17:00 +27°C° 0 mm 2 mps 745 mmHg 48%
18:00 +25°C° 0 mm 2 mps 745 mmHg 55%
19:00 +23°C° 0 mm 2 mps 745 mmHg 61%
20:00 +20°C° 0 mm 2 mps 746 mmHg 68%
21:00 +20°C° 0 mm 2 mps 746 mmHg 70%
22:00 +20°C° 0 mm 1 mps 746 mmHg 72%
23:00 +19°C° 0 mm 1 mps 746 mmHg 74%

19 July, Sunday

Time Temperature Precipitation Wind Pressure Humidity
00:00 +19°C° 0 mm 1 mps 746 mmHg 76%
01:00 +19°C° 0 mm 1 mps 746 mmHg 78%
02:00 +18°C° 0 mm 1 mps 746 mmHg 80%
03:00 +18°C° 0 mm 1 mps 746 mmHg 81%
04:00 +19°C° 0 mm 1 mps 746 mmHg 81%
05:00 +19°C° 0 mm 1 mps 746 mmHg 82%
06:00 +20°C° 0 mm 1 mps 746 mmHg 77%
07:00 +22°C° 0 mm 1 mps 746 mmHg 73%
08:00 +24°C° 0 mm 1 mps 746 mmHg 68%
09:00 +25°C° 0 mm 1 mps 746 mmHg 63%
10:00 +26°C° 0 mm 1 mps 745 mmHg 58%
11:00 +27°C° 0 mm 2 mps 745 mmHg 54%
12:00 +27°C° 0 mm 2 mps 745 mmHg 51%
13:00 +28°C° 0 mm 2 mps 745 mmHg 49%
14:00 +28°C° 0 mm 2 mps 744 mmHg 47%
15:00 +28°C° 0 mm 2 mps 744 mmHg 50%
16:00 +27°C° 0 mm 2 mps 744 mmHg 53%
17:00 +27°C° 0 mm 2 mps 744 mmHg 56%
18:00 +25°C° 0 mm 2 mps 744 mmHg 59%
19:00 +24°C° 0 mm 2 mps 744 mmHg 62%
20:00 +21°C° 0 mm 2 mps 744 mmHg 65%
21:00 +20°C° 0 mm 2 mps 744 mmHg 67%
22:00 +19°C° 0 mm 2 mps 743 mmHg 69%
23:00 +18°C° 0 mm 2 mps 743 mmHg 71%

20 July, Monday

Time Temperature Precipitation Wind Pressure Humidity
00:00 +18°C° 0 mm 2 mps 743 mmHg 72%
01:00 +19°C° 0 mm 1 mps 743 mmHg 73%
02:00 +18°C° 0 mm 1 mps 743 mmHg 73%
03:00 +18°C° 0 mm 1 mps 743 mmHg 75%
04:00 +18°C° 0 mm 1 mps 743 mmHg 76%
05:00 +19°C° 0 mm 1 mps 743 mmHg 78%
06:00 +20°C° 0 mm 1 mps 742 mmHg 72%
07:00 +22°C° 0 mm 1 mps 742 mmHg 67%
08:00 +24°C° 0 mm 2 mps 742 mmHg 62%
09:00 +25°C° 0.1 mm 1 mps 742 mmHg 58%
10:00 +26°C° 0.1 mm 1 mps 742 mmHg 55%
11:00 +28°C° 0.1 mm 1 mps 742 mmHg 51%
12:00 +27°C° 1.2 mm 1 mps 741 mmHg 53%
13:00 +27°C° 1.2 mm 1 mps 741 mmHg 55%
14:00 +27°C° 1.2 mm 1 mps 741 mmHg 57%
15:00 +26°C° 0.9 mm 1 mps 740 mmHg 61%
16:00 +25°C° 0.9 mm 2 mps 740 mmHg 65%
17:00 +25°C° 0.9 mm 2 mps 740 mmHg 69%
18:00 +23°C° 0.1 mm 2 mps 739 mmHg 75%
19:00 +21°C° 0.1 mm 2 mps 739 mmHg 81%
20:00 +19°C° 0.1 mm 2 mps 739 mmHg 87%
21:00 +20°C° 0.1 mm 1 mps 739 mmHg 87%
22:00 +20°C° 0.1 mm 1 mps 739 mmHg 86%
23:00 +17°C° 0.1 mm 0 mps 739 mmHg 86%
Show more